AirNav   Air Wisconsin pilot careers
 
 470 users online  

I80 Noblesville Airport
Noblesville, Indiana, USA

GOING TO NOBLESVILLE?


FAA INFORMATION EFFECTIVE 19 JULY 2018

Location

FAA Identifier: I80
Lat/Long: 40-00-12.6000N / 085-57-52.3000W
40-00.210000N / 085-57.871667W
40.0035000 / -85.9645278
(estimated)
Elevation: 821 ft. / 250 m (estimated)
Variation: 02W (1985)
From city: 4 miles SE of NOBLESVILLE, IN
Time zone: UTC -4 (UTC -5 during Standard Time)
Zip code: 46060

Airport Operations

Airport use: Open to the public
Activation date: 02/1987
Control tower: no
ARTCC: INDIANAPOLIS CENTER
FSS: TERRE HAUTE FLIGHT SERVICE STATION
NOTAMs facility: HUF (NOTAM-D service available)
Attendance: UNATNDD
Wind indicator: yes
Segmented circle: yes
Lights: ACTVT LIRL RY 09/27 - 122.7

Airport Communications

CTAF: 122.9
WX AWOS-3 at UMP (6 nm SW): 119.375 (317-842-3911)
WX AWOS-3 at MQJ (10 nm S): 124.175 (317-335-3037)
WX AWOS-3PT at TYQ (13 nm W): 120.725 (317-769-3154)
WX AWOS-3 at 8A4 (17 nm SW): 118.250 (317-955-3160)
WX AWOS-3 at AID (17 nm E): 128.55 (765-378-1510)
WX ASOS at EYE (18 nm SW): 121.575 (317-329-1754)

Nearby radio navigation aids

VOR radial/distance  VOR name  Freq  Var
VHPr058/21.7BRICKYARD VORTAC116.3001E
SHBr343/23.2SHELBYVILLE VOR/DME112.0001E
MIEr245/29.7MUNCIE VOR/DME114.4003W
OKKr177/31.7KOKOMO VORTAC113.5005W
MZZr207/32.2MARION VOR/DME108.6003W
GUSr169/39.4GRISSOM VORTAC108.4502W

 
NDB name  Hdg/Dist  Freq  Var  ID
METROPOLITAN048/5.633803WUMP ..- -- .--.
NEW CASTLE290/30.638506WUWL ..- .-- .-..

Airport Services

Parking: hangars and tiedowns

Runway Information

Runway 9/27

Dimensions: 3580 x 100 ft. / 1091 x 30 m
Surface: turf, in good condition
Runway edge lights: low intensity
RY 09/27 NO LIGHTS BTN RY ENDS AND DSPLCD THLDS.
RUNWAY 9  RUNWAY 27
Latitude: 40-00.212500N40-00.208167N
Longitude: 085-58.254667W085-57.487667W
Traffic pattern: rightleft
Displaced threshold: 465 ft.110 ft.
Obstructions: 15 ft. road
RY 09 APCH SLOPE 31:1 AT DSPLCD THLD.
22 ft. tree, 420 ft. from runway, 80 ft. right of centerline, 19:1 slope to clear
RY27 APCH SLOPE 24:1 AT DSPLCD THLD.

Airport Ownership and Management from official FAA records

Ownership: Privately-owned
Owner: DON ROBERTS/LARRY JACOBI
14782 PROMISE ROAD
NOBLESVILLE, IN 46060
Phone 317-773-3112
Manager: DON ROBERTS/LARRY JACOBI
14782 PROMISE ROAD
NOBLESVILLE, IN 46060
Phone 317-773-3112

Airport Operational Statistics

Aircraft based on the field: 24
Single engine airplanes: 24
    
Aircraft operations: avg 134/week *
71% local general aviation
29% transient general aviation
* for 12-month period ending 31 December 2015

Additional Remarks

FOR CD CTC IND APCH AT 317-227-5743.

Instrument Procedures

There are no published instrument procedures at I80.

Some nearby airports with instrument procedures:

KUMP - Indianapolis Metropolitan Airport (6 nm SW)
KMQJ - Indianapolis Regional Airport (10 nm S)
KTYQ - Indianapolis Executive Airport (13 nm W)
5I4 - Sheridan Airport (16 nm NW)
8A4 - Indianapolis Downtown Heliport (17 nm SW)
KAID - Anderson Municipal Airport-Darlington Field (17 nm E)
KEYE - Eagle Creek Airpark (18 nm SW)
 
Loc | Ops | Rwys | IFR | FBO | Links
Com | Nav | Svcs | Stats | Notes

City of Findlay
 
Area around I80 (Noblesville Airport)
 
Road maps at: MapQuest Bing Google
 
Aerial photo
WARNING: Photo may not be current or correct
Aerial photo of I80 (Noblesville Airport)
Do you have a better or more recent aerial photo of Noblesville Airport that you would like to share? If so, please send us your photo.

 
Sectional chart

 
Airport distance calculator
Flying to Noblesville Airport? Find the distance to fly.

From to I80

Sunrise and sunset
Times for 23-Jul-2018
 Local
(UTC-4)
 Zulu
(UTC)
Morning civil twilight06:0410:04
Sunrise06:3510:35
Sunset21:0501:05
Evening civil twilight21:3701:37

Current date and time
Zulu (UTC)  23-Jul-2018 05:49:15
Local (UTC-4)  23-Jul-2018 01:49:15
 
METAR
KMQJ 
10nm S 
230534Z AUTO 36005KT 10SM SCT085 17/17 A2988 RMK AO1
KTYQ 
13nm W 
230535Z AUTO 35005KT 10SM 16/16 A2990 RMK AO2 T01630160
KAID 
17nm NE 
230535Z AUTO 35004KT 10SM CLR 18/15 A2989 RMK AO2 T01750148
KEYE 
19nm SW 
230453Z AUTO 04005KT 10SM OVC044 21/15 A2988 RMK AO2 SLP112 T02060150 402720206
TAF
KIND 
23nm SW 
230205Z 2302/2406 03010KT P6SM SCT040 BKN110 FM231600 01009KT P6SM BKN020 FM231800 36008KT P6SM BKN035
NOTAMs
Click for the latest NOTAMs
NOTAMs are issued by the DoD/FAA and will open in a separate window not controlled by AirNav.

 

 
 

Would you like to see your business listed on this page?

 If your business provides an interesting product or service to pilots, flight crews, aircraft, or users of the Noblesville Airport, you should consider listing it here.  To start the listing process, click on the button below
 
Add a business
 

Other Pages about Noblesville Airport

Update a link
 
Copyright © AirNav, LLC. All rights reserved. Privacy Policy  Contact